Regional Weather Roundup
Issued by NWS Newport/Morehead, NC

Current Version | Previous Version | Text Only | Print | Product List | Glossary Off
Versions: 1 2 3 4 5 6 7 8 9 10 11 12 13 14 15 16 17 18 19 20 21 22 23 24 25 26 27 28 29 30 31 32 33 34 35 36 37 38 39 40 41 42 43 44 45 46 47 48 49 50
181 ASUS42 KMHX 162214 RWRMHX WEATHER ROUNDUP FOR EASTERN NORTH CAROLINA NATIONAL WEATHER SERVICE NEWPORT/MOREHEAD CITY NC 600 PM EDT WED AUG 16 2017 NOTE: "FAIR" INDICATES FEW OR NO CLOUDS BELOW 12,000 FEET WITH NO SIGNIFICANT WEATHER AND/OR OBSTRUCTIONS TO VISIBILITY NCZ015>017-031-032-045>047-102-103-162300- NORTH COAST CITY SKY/WX TMP DP RH WIND PRES REMARKS EDENTON MOSUNNY 85 77 75 CALM 29.99S ELIZABETH CITY SUNNY 84 77 79 E9 29.99R KITTY HAWK PTCLDY 80 74 82 CALM 29.99S MANTEO PTSUNNY 80 74 81 E9 30.00S $$ NCZ045>047-081-094-103-104-162300- CENTRAL COAST CITY SKY/WX TMP DP RH WIND PRES REMARKS FRISCO SUNNY 84 75 74 NE9 29.98F $$ NCZ095-097-098-100-101-162300- SOUTHERN COAST CITY SKY/WX TMP DP RH WIND PRES REMARKS BEAUFORT SUNNY 86 77 74 E5 29.98S CEDAR ISLAND NOT AVBL JACKSONVILLE MOSUNNY 90 77 65 NE5 29.97S HX 103 PINEY ISLAND CLEAR N/A N/A N/A E6 29.97F WILMINGTON CLOUDY 84 78 82 SE5 29.98S $$ NCZ011>013-027>030-043-044-078>080-089-090>093-098-162300- COASTAL PLAIN CITY SKY/WX TMP DP RH WIND PRES REMARKS AHOSKIE N/A 85 71 63 N3 30.00R CLINTON SUNNY 90 76 63 E5 29.98S HX 102 ELIZABETHTOWN NOT AVBL GOLDSBORO MOSUNNY 90 75 62 NE5 29.98S HX 100 GREENVILLE SUNNY 88 72 58 CALM 30.00S HAVELOCK MOSUNNY 85 77 77 SE9 29.98S KENANSVILLE SUNNY 88 72 58 N6 29.98S KINSTON SUNNY 90 72 55 N5 29.99S NEW BERN SUNNY 87 75 67 N6 29.99S RICHLANDS PTSUNNY 89 75 63 N5 29.98F ROCKY MOUNT SUNNY 89 71 55 VRB3 29.99F WASHINGTON SUNNY 88 73 60 N5 29.98S WHITEVILLE PTSUNNY 88 78 72 CALM 29.96S HX 101 $$ AMZ130-135-150-152-154-156-158-170-250-252-270-ANZ085-086-088-633-658-670-162300- MARINE OBSERVATIONS STATION/POSITION TIME TEMP WIND PRES WAVE SWELL AIR SEA DIR/SP/G HT/PER HT/PER (UTC) (F) (DEG/KT/KT) (MB) (FT/S) (FT/S) CHESAPEAKE LIGHT NOT AVBL 64 E VA BEACH 2150 78 79 50/ 6/ 6 1016.1 2/ 8 2/ 8 DUCK 2148 79 79 60/ 9/ 10 1015.4 2 E DUCK 2130 79 N/A 2/ 8 OREGON INLET 2148 40/ 8/ 10 1015.6 13E OREGON INLT 2148 79 N/A 3/ 7 3/ 7 HATTERAS CG 2148 81 84 40/ 9/ 12 1015.2 DIAMOND BUOY 2150 81 84 30/ 12/ 16 1015.0 3/ 7 2/ 7 CAPE LOOKOUT 2200 81 70/ 7/ 8 1014.9 BEAUFORT LAB 2148 87 82 CALM / 3 1014.5 30 SE NEW RVR IN 2108 85 85 330/ 2/ 4 1015.1 30 SE NEW RVR IN 2143 85 N/A 3/ 6 27 SE WRIGHTSVLE 2108 83 84 150/ 4/ 6 1015.2 5 SE WRIGHTSVLE 2108 83 84 140/ 8/ 10 1015.1 225 S CAPE HAT 2150 84 84 240/ 12/ 14 1015.7 4/ 6 3/ 6 41 SE CHARLESTON 2200 84 84 220/ 12/ 14 1014.9 $$

USA.gov is the U.S. government's official web portal to all federal, state and local government web resources and services.